EN

Hourly Weather Remscheid

Today, 15 January, Friday

Time Temperature Precipitation Wind Pressure Humidity
00:00 -4°C° 0 mm 3 mps 737 mmHg 81%
01:00 -4°C° 0 mm 3 mps 738 mmHg 80%
02:00 -3°C° 0 mm 2 mps 738 mmHg 78%
03:00 -3°C° 0 mm 2 mps 738 mmHg 77%
04:00 -3°C° 0 mm 2 mps 739 mmHg 79%
05:00 -3°C° 0 mm 2 mps 739 mmHg 81%
06:00 -3°C° 0 mm 2 mps 739 mmHg 88%
07:00 -3°C° 0.1 mm 2 mps 740 mmHg 88%
08:00 -2°C° 0.1 mm 2 mps 740 mmHg 88%
09:00 -2°C° 0.1 mm 2 mps 741 mmHg 88%
10:00 -1°C° 0.1 mm 2 mps 741 mmHg 84%
11:00 -1°C° 0.1 mm 2 mps 741 mmHg 79%
12:00 -1°C° 0.1 mm 2 mps 741 mmHg 75%
13:00 -1°C° 0 mm 2 mps 741 mmHg 74%
14:00 -1°C° 0 mm 2 mps 742 mmHg 73%
15:00 -1°C° 0 mm 2 mps 742 mmHg 71%
16:00 -2°C° 0 mm 2 mps 742 mmHg 77%
17:00 -2°C° 0 mm 2 mps 742 mmHg 83%
18:00 -1°C° 0 mm 1 mps 742 mmHg 89%
19:00 -1°C° 0 mm 1 mps 742 mmHg 88%
20:00 -1°C° 0 mm 1 mps 742 mmHg 88%
21:00 -1°C° 0 mm 1 mps 743 mmHg 88%
22:00 -2°C° 0 mm 1 mps 743 mmHg 88%
23:00 -2°C° 0 mm 1 mps 743 mmHg 89%

Tomorrow, 16 January, Saturday

Time Temperature Precipitation Wind Pressure Humidity
00:00 -2°C° 0 mm 1 mps 743 mmHg 89%
01:00 -2°C° 0 mm 1 mps 742 mmHg 89%
02:00 -3°C° 0 mm 0 mps 742 mmHg 89%
03:00 -4°C° 0 mm 0 mps 742 mmHg 89%
04:00 -4°C° 0 mm 0 mps 742 mmHg 89%
05:00 -4°C° 0 mm 0 mps 742 mmHg 88%
06:00 -4°C° 0 mm 0 mps 742 mmHg 88%
07:00 -3°C° 0 mm 0 mps 741 mmHg 86%
08:00 -2°C° 0 mm 1 mps 741 mmHg 85%
09:00 -2°C° 0 mm 1 mps 741 mmHg 83%
10:00 -1°C° 0 mm 1 mps 740 mmHg 80%
11:00 -1°C° 0 mm 1 mps 740 mmHg 76%
12:00 -2°C° 0 mm 2 mps 739 mmHg 73%
13:00 -3°C° 0 mm 2 mps 739 mmHg 72%
14:00 -3°C° 0 mm 2 mps 738 mmHg 72%
15:00 -3°C° 0 mm 2 mps 738 mmHg 72%
16:00 -3°C° 0 mm 2 mps 737 mmHg 73%
17:00 -3°C° 0 mm 2 mps 737 mmHg 74%
18:00 -3°C° 0 mm 2 mps 736 mmHg 76%
19:00 -4°C° 0.2 mm 3 mps 736 mmHg 81%
20:00 -4°C° 0.2 mm 3 mps 736 mmHg 86%
21:00 -5°C° 0.2 mm 3 mps 735 mmHg 91%
22:00 -4°C° 0.5 mm 3 mps 735 mmHg 92%
23:00 -4°C° 0.5 mm 3 mps 734 mmHg 94%

Day after tomorrow, 17 January, Sunday

Time Temperature Precipitation Wind Pressure Humidity
00:00 -4°C° 0.5 mm 3 mps 734 mmHg 95%
01:00 -3°C° 0.3 mm 2 mps 734 mmHg 96%
02:00 -3°C° 0.3 mm 2 mps 733 mmHg 96%
03:00 -3°C° 0.3 mm 2 mps 733 mmHg 97%
04:00 -1°C° 0.2 mm 1 mps 733 mmHg 97%
05:00 -1°C° 0.2 mm 1 mps 733 mmHg 97%
06:00 -1°C° 0.2 mm 1 mps 733 mmHg 97%
07:00 0°C° 0.1 mm 1 mps 733 mmHg 97%
08:00 0°C° 0.1 mm 1 mps 734 mmHg 98%
09:00 +1°C° 0.1 mm 1 mps 734 mmHg 98%
10:00 -1°C° 0.2 mm 2 mps 734 mmHg 98%
11:00 0°C° 0.2 mm 3 mps 735 mmHg 97%
12:00 +1°C° 0.2 mm 3 mps 735 mmHg 97%
13:00 +1°C° 0 mm 3 mps 735 mmHg 97%
14:00 +1°C° 0 mm 3 mps 736 mmHg 96%
15:00 +1°C° 0 mm 3 mps 736 mmHg 96%
16:00 0°C° 0.1 mm 3 mps 736 mmHg 96%
17:00 0°C° 0.1 mm 3 mps 737 mmHg 96%
18:00 0°C° 0.1 mm 3 mps 737 mmHg 96%
19:00 -1°C° 0 mm 3 mps 737 mmHg 96%
20:00 -1°C° 0 mm 3 mps 738 mmHg 96%
21:00 -1°C° 0 mm 3 mps 738 mmHg 96%
22:00 -1°C° 0 mm 3 mps 738 mmHg 95%
23:00 -1°C° 0 mm 3 mps 738 mmHg 95%

18 January, Monday

Time Temperature Precipitation Wind Pressure Humidity
00:00 -1°C° 0 mm 3 mps 739 mmHg 95%
01:00 -1°C° 0.1 mm 2 mps 739 mmHg 95%
02:00 -1°C° 0.1 mm 2 mps 739 mmHg 96%
03:00 -1°C° 0.1 mm 2 mps 739 mmHg 96%
04:00 -1°C° 0.1 mm 2 mps 739 mmHg 96%
05:00 -1°C° 0.1 mm 2 mps 739 mmHg 96%
06:00 -1°C° 0.1 mm 2 mps 739 mmHg 97%
07:00 -1°C° 0 mm 2 mps 740 mmHg 97%
08:00 +1°C° 0 mm 2 mps 740 mmHg 97%
09:00 +1°C° 0 mm 2 mps 740 mmHg 97%
10:00 +1°C° 0 mm 2 mps 740 mmHg 96%
11:00 0°C° 0 mm 3 mps 740 mmHg 95%
12:00 +1°C° 0 mm 3 mps 740 mmHg 94%
13:00 +1°C° 0 mm 3 mps 740 mmHg 94%
14:00 +2°C° 0 mm 2 mps 740 mmHg 93%
15:00 +2°C° 0 mm 2 mps 740 mmHg 93%
16:00 +1°C° 0 mm 2 mps 740 mmHg 94%
17:00 +1°C° 0 mm 2 mps 740 mmHg 94%
18:00 -1°C° 0 mm 2 mps 740 mmHg 95%
19:00 -1°C° 0 mm 2 mps 740 mmHg 94%
20:00 -1°C° 0 mm 2 mps 740 mmHg 93%
21:00 -2°C° 0 mm 2 mps 740 mmHg 92%
22:00 -2°C° 0 mm 2 mps 740 mmHg 91%
23:00 -2°C° 0 mm 3 mps 739 mmHg 90%

19 January, Tuesday

Time Temperature Precipitation Wind Pressure Humidity
00:00 -2°C° 0 mm 3 mps 739 mmHg 89%
01:00 -2°C° 0 mm 3 mps 739 mmHg 88%
02:00 -3°C° 0 mm 4 mps 738 mmHg 86%
03:00 -3°C° 0 mm 4 mps 737 mmHg 85%
04:00 -4°C° 0 mm 5 mps 737 mmHg 83%
05:00 -2°C° 0 mm 5 mps 736 mmHg 81%
06:00 -2°C° 0 mm 5 mps 736 mmHg 79%
07:00 -2°C° 0.1 mm 5 mps 736 mmHg 78%
08:00 -2°C° 0.1 mm 5 mps 735 mmHg 77%
09:00 -2°C° 0.1 mm 6 mps 735 mmHg 76%
10:00 -1°C° 0.1 mm 5 mps 734 mmHg 77%
11:00 0°C° 0.1 mm 5 mps 734 mmHg 79%
12:00 0°C° 0.1 mm 5 mps 734 mmHg 80%
13:00 0°C° 0.1 mm 4 mps 733 mmHg 82%
14:00 0°C° 0.1 mm 4 mps 733 mmHg 84%
15:00 +1°C° 0.1 mm 4 mps 732 mmHg 86%
16:00 +1°C° 0.1 mm 4 mps 732 mmHg 87%
17:00 +1°C° 0.1 mm 4 mps 732 mmHg 87%
18:00 0°C° 0.1 mm 5 mps 732 mmHg 88%
19:00 0°C° 0 mm 5 mps 732 mmHg 87%
20:00 0°C° 0 mm 5 mps 731 mmHg 87%
21:00 0°C° 0 mm 5 mps 731 mmHg 86%
22:00 0°C° 0 mm 5 mps 731 mmHg 84%
23:00 0°C° 0 mm 5 mps 730 mmHg 82%

20 January, Wednesday

Time Temperature Precipitation Wind Pressure Humidity
00:00 -1°C° 0 mm 6 mps 729 mmHg 80%
01:00 -1°C° 0 mm 6 mps 729 mmHg 81%
02:00 +1°C° 0 mm 6 mps 728 mmHg 81%
03:00 +1°C° 0 mm 6 mps 728 mmHg 81%
04:00 +1°C° 0 mm 6 mps 727 mmHg 80%
05:00 +2°C° 0 mm 6 mps 727 mmHg 78%
06:00 +2°C° 0 mm 6 mps 727 mmHg 77%
07:00 +2°C° 0 mm 6 mps 726 mmHg 76%
08:00 +3°C° 0 mm 6 mps 726 mmHg 75%
09:00 +3°C° 0 mm 6 mps 726 mmHg 75%
10:00 +4°C° 0 mm 7 mps 725 mmHg 74%
11:00 +5°C° 0 mm 7 mps 725 mmHg 74%
12:00 +5°C° 0 mm 7 mps 724 mmHg 73%
13:00 +5°C° 0 mm 7 mps 723 mmHg 74%
14:00 +6°C° 0 mm 7 mps 723 mmHg 74%
15:00 +6°C° 0 mm 7 mps 722 mmHg 75%
16:00 +6°C° 0.1 mm 7 mps 721 mmHg 76%
17:00 +6°C° 0.1 mm 8 mps 721 mmHg 77%
18:00 +6°C° 0.1 mm 8 mps 721 mmHg 77%
19:00 +6°C° 0.5 mm 8 mps 721 mmHg 79%
20:00 +6°C° 0.5 mm 7 mps 721 mmHg 81%
21:00 +6°C° 0.5 mm 7 mps 721 mmHg 82%
22:00 +5°C° 1.3 mm 7 mps 721 mmHg 85%
23:00 +3°C° 1.3 mm 6 mps 720 mmHg 88%
Show more

We Need Your Consent

Meteoprog and our Service Providers may store and access personal data such as cookies, device identifiers or other similar technologies on your device and process such data to personalise content and ads, as well as provide social media features and to analyse the traffic.

  • Store and/or access information on your device

    Cookies, device identifiers or other information can be stored or accessed on your device for the purposes indicated above.

  • Personalised ads and content, ad and content measurement, audience insights, and products development

    Ads and content can be personalised based on a profile. More data can be added to better personalise ads and content. Ad and content performance can be measured. Insights about the audience who saw the ads and content can be derived. Such data can be used to develop or improve user’s experience, systems and software.

By clicking ‘I Agree’ you will allow the use of indicated cookies, device identifiers, web beacons or other similar technologies. Your settings can be changed in the browser on your device.

For certain purposes, legitimate interests may be relied on, rather than consent. You can read more about this in our Privacy and Cookie Policy.